Wind_Speed
48 50 52 46 43 42 41 35 34 41 54 62 70 71 65 65 61 51 47 48 51 53 48 43 46 46 44 46 45 50 43 39 53 53 48 51 47 46 40 39 36 30 27 27
49 48 42 40 42 43 41 42 42 47 54 56 66 72 72 68 57 52 51 51 54 50 49 48 48 52 53 52 50 55 54 57 53 48 54 54 52 49 44 42 40 35 31 28
48 40 38 37 43 45 47 42 45 47 49 60 66 66 71 69 63 57 52 53 54 58 52 53 51 48 51 53 50 49 53 56 51 57 55 57 58 51 47 45 46 42 38 36
40 38 35 40 41 42 41 44 45 48 52 60 66 64 64 67 66 65 57 57 57 55 54 57 56 54 55 55 52 52 54 53 52 60 63 63 63 56 51 47 50 49 46 43
35 31 31 33 35 39 41 43 45 53 53 57 64 61 65 64 66 67 64 61 61 61 60 58 58 56 56 57 58 54 53 55 56 53 62 63 68 62 55 51 50 53 53 51
27 26 29 28 34 38 43 45 49 55 57 58 62 62 68 68 64 64 67 67 64 64 62 59 58 59 61 60 60 59 60 57 59 56 65 71 70 66 63 60 57 55 52 52
26 29 33 32 34 38 45 49 51 51 54 59 60 60 69 70 70 66 65 65 66 66 65 63 61 61 63 63 58 56 57 58 55 57 68 69 62 66 66 66 63 61 58 55
27 29 29 33 35 41 45 45 46 53 56 58 57 54 60 72 70 69 67 64 64 64 64 64 67 68 66 63 58 56 53 51 51 58 64 68 67 65 70 70 68 67 63 62
22 25 28 33 35 42 45 50 49 51 54 53 53 53 51 61 69 69 69 68 67 67 67 68 67 68 66 66 61 59 52 54 57 59 67 70 68 68 66 71 74 74 72 72
18 21 26 32 34 39 46 49 53 54 54 54 52 49 50 53 60 66 71 73 73 73 73 73 71 69 68 67 62 61 56 59 61 60 65 70 73 76 74 72 76 78 80 78
17 17 21 25 26 28 36 41 41 46 48 48 48 47 46 47 53 63 68 70 73 75 78 77 76 74 72 69 66 63 65 64 61 63 63 71 70 71 73 77 75 71 74 74
15 15 17 19 22 17 22 27 29 33 42 47 45 43 44 47 54 59 66 72 71 72 77 78 76 76 74 71 67 61 67 69 64 66 66 70 71 71 74 78 79 76 77 76
16 17 18 19 17 21 26 23 21 27 30 39 48 51 49 50 55 62 66 69 70 71 74 76 78 78 76 75 70 62 72 74 73 73 73 72 78 76 75 80 82 80 80 82
19 22 22 23 25 23 23 26 26 32 39 40 47 57 59 54 53 58 64 65 67 67 67 70 72 74 75 72 70 69 75 78 81 78 76 80 81 81 81 83 85 87 85 84
21 24 26 28 28 30 31 34 37 41 43 52 55 52 52 53 53 55 57 59 62 64 66 68 71 73 75 76 76 77 74 83 86 88 85 82 85 85 86 90 90 92 92 94
20 23 27 29 31 32 34 36 44 45 36 32 40 44 48 51 52 53 54 55 58 61 65 69 71 74 76 78 79 80 82 82 91 94 95 94 93 94 94 95 98 100 100 100
15 18 20 22 28 31 31 35 20 20 34 31 31 36 43 48 53 55 55 55 57 59 63 67 72 75 77 79 82 84 85 89 88 96 101 103 101 102 103 102 104 104 108 108
15 15 11 12 16 21 25 27 30 30 28 29 32 35 40 44 48 52 54 57 58 60 62 65 69 74 79 80 83 85 86 88 95 94 100 104 108 107 107 108 109 110 112 113
20 19 18 17 17 18 20 21 22 25 27 29 33 36 40 44 47 50 54 57 60 62 64 67 70 73 76 79 81 85 87 90 90 94 97 103 109 113 113 114 114 115 117 119
10 10 10 11 12 14 16 19 21 23 26 29 33 36 40 44 46 49 53 57 61 63 66 69 71 74 77 80 81 83 85 86 89 92 95 98 100 106 112 113 117 118 119 124
8 6 6 7 9 11 14 17 20 23 27 30 33 36 40 43 47 50 54 58 62 64 66 69 70 73 76 78 80 83 84 85 86 87 90 92 94 97 99 101 108 112 113 118
6 5 4 6 8 11 14 18 21 25 28 32 35 39 43 46 50 53 55 59 61 63 64 65 68 70 72 74 77 79 81 83 85 86 87 88 89 91 92 95 99 102 103 105
4 0 4 7 10 13 17 21 24 28 30 34 38 42 46 49 52 54 56 57 59 59 61 62 63 66 69 70 71 72 74 76 79 81 83 84 86 88 89 90 91 93 95 97
3 5 9 13 16 19 23 26 30 33 37 40 44 48 51 54 55 56 54 54 55 56 56 58 60 61 62 63 65 67 69 70 72 73 75 78 80 81 83 84 85 86 88 90
10 13 17 20 24 27 31 34 36 38 41 44 47 50 51 52 54 54 54 54 53 52 52 53 54 56 57 57 57 58 61 63 65 68 70 72 73 75 76 77 79 80 82 83
17 19 23 26 29 33 36 39 41 42 45 49 53 55 55 55 53 51 49 48 46 47 47 48 48 49 51 54 55 55 55 56 58 59 61 62 64 67 69 71 72 73 75 76
20 24 28 31 34 37 41 44 46 46 49 52 54 55 55 55 55 53 52 50 48 46 46 45 45 46 47 48 50 51 52 53 53 54 55 55 56 58 59 60 61 63 64 65
Wind_Direction
275 267 267 265 262 255 253 241 232 216 209 206 206 208 212 218 218 211 199 200 197 197 208 211 213 216 224 224 224 217 222 239 244 250 240 227 223 224 229 224 226 221 223 220
274 265 262 260 254 250 244 236 226 219 221 211 207 210 212 218 219 209 206 205 203 206 204 209 219 219 220 225 231 227 231 226 239 243 235 230 227 225 229 225 226 224 222 221
270 271 264 253 243 237 234 230 226 225 224 214 216 214 213 215 213 213 213 214 216 215 214 218 218 226 229 232 238 232 232 235 247 246 232 228 229 227 228 226 225 226 228 227
275 268 257 245 239 234 228 224 222 223 221 215 218 221 217 215 211 213 214 214 218 220 218 219 222 227 230 235 237 231 238 239 247 246 234 231 230 225 227 229 229 230 231 233
271 257 247 239 235 228 223 221 219 219 221 217 220 219 222 221 215 212 212 216 218 220 221 224 228 232 235 237 239 239 234 246 248 246 234 232 231 228 225 231 236 237 238 239
264 251 240 234 229 223 218 215 215 217 218 219 220 217 219 224 221 217 214 216 219 221 225 224 229 235 241 241 239 239 244 250 248 236 214 228 232 230 228 230 234 237 238 241
257 243 234 224 220 219 216 214 215 217 222 224 222 216 220 222 224 221 220 217 220 224 229 233 231 233 239 241 244 247 252 251 238 228 225 226 231 234 232 231 232 234 237 240
252 246 236 222 211 211 212 215 216 216 220 223 227 227 220 223 225 226 223 222 222 225 227 230 232 233 241 247 252 257 264 239 230 226 223 223 228 229 231 233 235 236 238 240
250 239 228 228 220 215 212 215 214 218 222 226 227 226 224 222 227 227 227 223 223 225 225 227 230 236 243 250 254 259 258 237 230 222 220 222 227 237 230 234 237 240 243 244
249 241 233 226 226 218 215 218 220 222 221 224 229 231 226 222 223 227 230 231 228 226 229 232 235 238 242 245 249 254 247 232 228 226 222 225 227 234 235 235 235 239 242 246
240 240 241 240 238 240 232 233 233 230 229 228 230 232 232 229 225 226 228 231 232 232 232 234 237 239 242 244 247 252 234 231 231 229 226 225 226 230 232 234 234 237 238 243
227 227 234 237 237 234 217 221 226 230 235 234 233 232 232 230 227 227 228 232 231 232 234 234 236 239 242 245 248 240 231 234 230 233 231 230 226 231 229 234 235 233 237 241
215 208 213 219 221 225 228 224 226 225 233 234 236 237 234 229 228 229 229 230 232 232 233 235 236 238 240 244 244 238 232 229 230 233 234 231 231 228 232 233 231 234 236 242
209 201 205 210 217 215 216 218 215 220 224 224 232 230 228 227 230 232 232 233 234 234 234 235 236 239 240 240 239 238 233 231 232 236 234 235 234 234 233 234 237 236 237 242
214 208 205 206 211 212 216 220 221 222 223 230 233 233 234 235 235 237 238 240 239 238 237 237 237 238 239 240 241 237 238 233 234 235 235 237 235 236 237 237 239 239 240 243
217 216 215 213 212 216 223 231 234 236 247 250 247 243 241 241 242 243 243 243 244 243 243 241 240 241 242 242 239 237 237 239 235 235 238 237 237 239 241 241 241 240 242 245
220 215 224 230 230 230 239 234 277 267 254 251 249 245 242 242 242 243 245 246 247 247 245 244 244 244 244 242 242 240 239 239 241 238 239 239 239 240 241 242 244 245 245 245
203 204 207 224 237 238 244 248 250 253 252 252 253 252 251 251 250 249 250 250 249 248 249 249 249 249 249 248 247 247 246 244 241 243 242 244 243 243 243 244 244 245 246 247
195 198 206 215 223 229 235 241 245 249 252 256 258 258 257 256 255 254 252 253 253 253 252 251 251 250 250 251 251 251 251 250 250 249 247 245 245 246 246 248 248 249 249 250
198 207 212 222 235 244 251 256 262 264 263 262 262 263 263 262 261 259 258 257 256 256 255 254 254 253 253 253 253 254 254 253 253 252 252 251 251 250 251 252 253 253 254 254
177 198 220 236 248 257 262 265 269 271 273 273 272 272 271 269 267 265 264 263 262 261 260 260 259 258 259 258 258 257 257 258 258 257 256 255 255 255 255 255 256 257 258 258
174 192 219 245 263 277 285 288 287 286 285 284 283 282 281 279 277 275 273 272 271 271 270 268 267 265 264 262 261 260 260 260 260 261 261 261 261 260 259 259 259 259 259 259
144 158 317 310 308 305 304 303 300 298 297 296 293 290 287 285 283 282 281 280 279 277 275 272 270 268 268 267 266 265 264 264 263 263 262 262 262 262 263 263 263 263 263 264
38 0 346 339 332 326 325 319 315 313 310 306 302 299 297 294 292 291 290 287 285 283 280 278 276 274 272 271 268 267 267 267 266 265 265 265 265 265 265 265 265 265 265 265
12 0 350 342 335 329 325 321 317 313 310 308 304 300 296 293 291 291 291 290 288 286 283 281 279 278 277 275 273 271 269 268 267 267 267 266 266 266 266 266 266 266 266 267
359 350 341 335 329 326 324 322 320 317 316 315 312 308 306 304 302 301 299 296 294 291 289 285 281 279 277 277 277 276 275 273 271 270 269 268 267 267 267 267 268 268 268 269
343 337 333 329 328 327 326 324 323 320 319 315 312 308 307 307 305 304 302 299 297 295 292 289 286 283 281 279 278 278 277 277 276 275 274 272 271 271 270 269 269 269 269 269
Height
10273 10268 10268 10275 10279 10281 10287 10295 10305 10308 10311 10313 10329 10337 10344 10348 10362 10375 10383 10392 10402 10409 10420 10428 10436 10442 10449 10455 10460 10466 10471 10481 10473 10472 10474 10476 10482 10486 10491 10496 10499 10501 10506 10510
10252 10249 10258 10263 10264 10267 10273 10278 10288 10295 10298 10309 10313 10324 10332 10341 10356 10369 10378 10386 10393 10400 10407 10416 10424 10430 10437 10443 10448 10455 10459 10464 10461 10462 10466 10468 10473 10479 10484 10489 10492 10495 10498 10502
10231 10238 10241 10245 10243 10248 10252 10265 10274 10283 10292 10299 10300 10308 10319 10331 10345 10356 10367 10376 10383 10390 10397 10404 10411 10418 10424 10430 10435 10441 10445 10447 10449 10451 10457 10458 10462 10471 10475 10479 10484 10487 10490 10493
10218 10222 10225 10225 10229 10234 10244 10251 10260 10270 10279 10285 10290 10299 10308 10319 10333 10344 10355 10364 10371 10378 10384 10390 10396 10403 10409 10415 10420 10425 10429 10433 10436 10438 10446 10450 10451 10460 10465 10469 10474 10479 10482 10485
10205 10208 10211 10213 10217 10223 10230 10238 10248 10254 10264 10275 10280 10292 10301 10308 10320 10332 10342 10351 10359 10365 10372 10379 10384 10389 10395 10400 10405 10410 10414 10418 10420 10424 10436 10440 10441 10448 10455 10460 10463 10467 10470 10474
10194 10197 10198 10203 10206 10214 10220 10227 10236 10242 10251 10260 10269 10282 10290 10300 10310 10319 10327 10337 10345 10353 10360 10366 10372 10376 10380 10384 10389 10394 10398 10401 10405 10410 10414 10420 10429 10435 10442 10446 10450 10453 10457 10460
10184 10185 10187 10192 10198 10204 10210 10218 10226 10237 10244 10250 10258 10270 10279 10287 10296 10307 10315 10324 10331 10338 10346 10353 10358 10362 10365 10369 10374 10380 10381 10382 10387 10393 10398 10408 10414 10420 10427 10430 10436 10440 10444 10447
10177 10178 10184 10186 10192 10196 10204 10212 10220 10226 10232 10240 10248 10258 10268 10276 10286 10294 10303 10312 10320 10327 10333 10339 10343 10348 10352 10356 10359 10362 10364 10366 10371 10377 10384 10392 10398 10402 10408 10415 10420 10425 10429 10432
10174 10176 10179 10181 10186 10192 10200 10204 10212 10218 10223 10231 10237 10246 10255 10264 10273 10281 10289 10299 10307 10314 10319 10323 10329 10335 10339 10341 10346 10349 10350 10353 10356 10360 10367 10375 10382 10386 10392 10398 10403 10408 10411 10414
10169 10171 10174 10177 10181 10188 10194 10198 10204 10208 10214 10221 10228 10236 10245 10253 10262 10269 10275 10282 10291 10298 10304 10309 10314 10319 10324 10328 10333 10335 10337 10339 10341 10346 10352 10358 10365 10369 10374 10378 10383 10388 10391 10395
10162 10167 10170 10173 10178 10180 10187 10191 10198 10203 10208 10215 10221 10227 10233 10241 10248 10255 10260 10266 10273 10279 10286 10292 10298 10303 10308 10312 10317 10319 10323 10326 10329 10333 10337 10342 10346 10352 10356 10361 10364 10368 10371 10375
10157 10161 10164 10168 10172 10175 10180 10185 10192 10196 10203 10208 10213 10218 10223 10228 10233 10238 10244 10249 10255 10262 10268 10274 10280 10286 10291 10295 10299 10302 10306 10310 10314 10318 10322 10326 10328 10333 10336 10340 10345 10347 10350 10354
10152 10155 10158 10162 10166 10170 10174 10178 10183 10190 10195 10198 10203 10207 10209 10213 10216 10221 10227 10232 10238 10244 10250 10256 10262 10267 10272 10277 10281 10285 10289 10292 10296 10299 10303 10307 10312 10315 10319 10322 10324 10327 10330 10332
10146 10149 10152 10156 10159 10165 10170 10174 10177 10180 10183 10187 10189 10188 10191 10198 10205 10208 10213 10218 10224 10229 10236 10241 10246 10250 10255 10260 10263 10267 10270 10273 10277 10281 10284 10287 10291 10296 10298 10301 10304 10306 10307 10311
10140 10143 10147 10151 10155 10159 10162 10165 10168 10171 10174 10175 10175 10180 10186 10190 10194 10198 10202 10207 10210 10214 10219 10223 10227 10231 10235 10239 10242 10245 10250 10254 10257 10261 10263 10267 10270 10273 10276 10279 10281 10283 10286 10288
10136 10138 10142 10146 10149 10153 10157 10159 10160 10163 10169 10171 10172 10176 10178 10180 10183 10186 10188 10191 10194 10197 10201 10204 10207 10211 10214 10217 10220 10223 10227 10230 10234 10237 10239 10243 10246 10249 10251 10254 10256 10256 10259 10262
10130 10133 10138 10141 10145 10148 10151 10154 10156 10158 10162 10161 10161 10162 10164 10166 10168 10171 10173 10176 10178 10180 10182 10185 10187 10188 10190 10193 10196 10199 10202 10206 10209 10213 10214 10216 10220 10223 10225 10228 10230 10231 10231 10234
10126 10129 10133 10137 10140 10143 10146 10148 10149 10151 10153 10154 10154 10154 10155 10156 10158 10159 10161 10161 10163 10164 10166 10167 10168 10168 10168 10170 10173 10175 10177 10180 10183 10184 10187 10190 10192 10195 10197 10200 10201 10203 10203 10203
10124 10127 10131 10135 10138 10140 10142 10144 10145 10145 10145 10145 10145 10145 10145 10145 10145 10145 10145 10145 10145 10146 10146 10146 10146 10145 10144 10146 10148 10149 10150 10154 10156 10158 10160 10162 10163 10166 10168 10170 10171 10172 10173 10172
10127 10130 10132 10134 10136 10137 10138 10138 10138 10138 10138 10137 10136 10135 10134 10132 10130 10130 10129 10128 10126 10126 10125 10123 10122 10121 10120 10120 10121 10121 10121 10123 10125 10127 10129 10132 10133 10135 10137 10137 10139 10140 10142 10142
10126 10128 10130 10132 10133 10133 10133 10132 10131 10130 10129 10128 10126 10124 10121 10118 10115 10114 10111 10107 10104 10103 10101 10099 10100 10099 10097 10097 10096 10096 10096 10096 10096 10098 10099 10101 10103 10103 10104 10104 10106 10107 10107 10109
10126 10127 10128 10129 10129 10129 10129 10127 10126 10124 10122 10119 10116 10112 10108 10104 10100 10096 10093 10089 10086 10083 10080 10079 10076 10073 10072 10070 10069 10069 10069 10069 10069 10070 10071 10071 10071 10072 10074 10075 10074 10073 10074 10074
10125 10126 10126 10126 10126 10125 10123 10121 10118 10115 10111 10107 10102 10097 10092 10087 10083 10078 10073 10068 10062 10059 10056 10053 10051 10049 10046 10043 10042 10042 10041 10041 10040 10041 10041 10042 10042 10043 10043 10044 10043 10043 10044 10043
10123 10124 10123 10121 10119 10117 10115 10111 10107 10102 10098 10093 10087 10081 10074 10067 10061 10055 10051 10047 10040 10035 10032 10028 10025 10023 10021 10019 10017 10016 10015 10014 10013 10013 10012 10012 10012 10011 10011 10012 10012 10013 10013 10012
10120 10119 10118 10116 10114 10110 10107 10102 10098 10092 10086 10079 10072 10064 10058 10051 10043 10037 10031 10025 10019 10014 10010 10006 10003 10000 9997 9994 9993 9992 9990 9988 9988 9987 9986 9985 9984 9983 9982 9982 9982 9982 9981 9981
10117 10115 10113 10110 10106 10102 10097 10090 10084 10078 10070 10060 10050 10041 10032 10025 10019 10014 10009 10003 9999 9994 9989 9985 9982 9979 9976 9973 9970 9968 9967 9966 9964 9963 9961 9961 9960 9959 9958 9956 9955 9955 9955 9954
10113 10111 10107 10104 10099 10094 10088 10081 10073 10065 10057 10047 10038 10028 10018 10009 10000 9994 9988 9984 9980 9976 9971 9966 9962 9959 9957 9954 9950 9947 9945 9943 9941 9939 9937 9936 9935 9934 9933 9932 9931 9931 9930 9929